Weather in Surigao

Philippines     9°43′46″N   125°29′09″E
temp.,
°C
wind,
m/s
gust,
m/s
humid.,
%
clouds,
%
prec.,
mm/h
press.,
hPa
HPBL,
m
9 may, sun
sun923:00+26e4683100 0.0 1010517
02:00+26ese3486100 1.3 1008311
05:00+25se2382100 0.2 1009302
08:00+26se1278100 0.3 1011204
11:00+29e457132 0.0 1009748
14:00+28e4574100 0.0 1007651
17:00+28e4680100 0.0 1008577
20:00+27e368353 0.0 1009494
10 may, mon
mon1023:00+27e4685100 0.0 1009494
02:00+26ese348376 0.1 1008396
05:00+26ese348498 1.4 1008326
08:00+26e1285100 1.5 1010258
11:00+29ne2267100 0.0 1008882
14:00+30ene236475 0.4 1007789
17:00+28e3477100 0.1 1008398
20:00+27e4680100 0.1 1010481
11 may, tue
tue1123:00+27ese3484100 0.0 1010423
02:00+26ese2288100 0.7 1008265
05:00+25e1288100 1.3 1009160
08:00+27e2379100 1.4 1010572
11:00+29e4571100 0.0 1009799
14:00+29e567031 0.0 1007823
17:00+28e5777100 0.0 1007822
20:00+27ese578096 0.0 1010638
12 may, wed
wed1223:00+26ese468634 0.0 1009440
02:00+25se238765 0.1 1007251
05:00+25ese348284 0.0 1008406
08:00+28e4672100 0.0 1010704
11:00+28e466963 0.0 1008741
14:00+29ene466990 0.0 1006778
17:00+27ene35785 0.0 1007492
20:00+26e358570 0.4 1008340
13 may, thu
thu1323:00+26e24867 0.2 1009311
02:00+26ene248591 0.2 1007294
05:00+25ne128591 0.0 1007207
08:00+27nne1377100 0.1 1008507
11:00+28ne2377100 2.6 1007563
14:00+27nnw2379100 6.1 1005538
17:00+26ene0188100 5.1 1005111
20:00+25n1190100 11.0 100770